owner,sensor,date,latitude,longitude,vertical_datum,sea_water_temperature,qcFlag 
COMPS,ioos:station:USF.COMPS:FHP:1,2016-04-01T07:42:00Z,28.1530,-82.8010,-1.0,37.93,2 
COMPS,ioos:station:USF.COMPS:FHP:1,2016-04-01T07:48:00Z,28.1530,-82.8010,-1.0,35.29,2 
COMPS,ioos:station:USF.COMPS:FHP:1,2016-04-01T07:54:00Z,28.1530,-82.8010,-1.0,28.48,2 
COMPS,ioos:station:USF.COMPS:FHP:1,2016-04-01T08:00:00Z,28.1530,-82.8010,-1.0,26.75,2 
COMPS,ioos:station:USF.COMPS:FHP:1,2016-04-01T08:06:00Z,28.1530,-82.8010,-1.0,24.99,2 
COMPS,ioos:station:USF.COMPS:FHP:1,2016-04-01T08:12:00Z,28.1530,-82.8010,-1.0,22.9,2 
COMPS,ioos:station:USF.COMPS:FHP:1,2016-04-01T08:18:00Z,28.1530,-82.8010,-1.0,21.72,2 
COMPS,ioos:station:USF.COMPS:FHP:1,2016-04-01T08:24:00Z,28.1530,-82.8010,-1.0,21.5,2 
COMPS,ioos:station:USF.COMPS:FHP:1,2016-04-01T08:30:00Z,28.1530,-82.8010,-1.0,21.49,2 
COMPS,ioos:station:USF.COMPS:FHP:1,2016-04-01T08:36:00Z,28.1530,-82.8010,-1.0,21.85,2 
COMPS,ioos:station:USF.COMPS:FHP:1,2016-04-01T08:42:00Z,28.1530,-82.8010,-1.0,21.79,2 
COMPS,ioos:station:USF.COMPS:FHP:1,2016-04-01T08:48:00Z,28.1530,-82.8010,-1.0,22.1,2 
COMPS,ioos:station:USF.COMPS:FHP:1,2016-04-01T08:54:00Z,28.1530,-82.8010,-1.0,21.92,2 
COMPS,ioos:station:USF.COMPS:FHP:1,2016-04-01T09:00:00Z,28.1530,-82.8010,-1.0,21.96,2 
COMPS,ioos:station:USF.COMPS:FHP:1,2016-04-01T09:06:00Z,28.1530,-82.8010,-1.0,22.02,2 
COMPS,ioos:station:USF.COMPS:FHP:1,2016-04-01T09:12:00Z,28.1530,-82.8010,-1.0,22.0,2 
COMPS,ioos:station:USF.COMPS:FHP:1,2016-04-01T09:18:00Z,28.1530,-82.8010,-1.0,22.02,2 
COMPS,ioos:station:USF.COMPS:FHP:1,2016-04-01T09:24:00Z,28.1530,-82.8010,-1.0,22.04,2 
COMPS,ioos:station:USF.COMPS:FHP:1,2016-04-01T09:30:00Z,28.1530,-82.8010,-1.0,21.97,2 
COMPS,ioos:station:USF.COMPS:FHP:1,2016-04-01T09:36:00Z,28.1530,-82.8010,-1.0,21.94,2 
COMPS,ioos:station:USF.COMPS:FHP:1,2016-04-01T09:42:00Z,28.1530,-82.8010,-1.0,21.92,2 
COMPS,ioos:station:USF.COMPS:FHP:1,2016-04-01T09:48:00Z,28.1530,-82.8010,-1.0,21.93,2 
COMPS,ioos:station:USF.COMPS:FHP:1,2016-04-01T09:54:00Z,28.1530,-82.8010,-1.0,21.94,2 
COMPS,ioos:station:USF.COMPS:FHP:1,2016-04-01T10:00:00Z,28.1530,-82.8010,-1.0,21.89,2 
COMPS,ioos:station:USF.COMPS:FHP:1,2016-04-01T10:06:00Z,28.1530,-82.8010,-1.0,21.89,2 
COMPS,ioos:station:USF.COMPS:FHP:1,2016-04-01T10:12:00Z,28.1530,-82.8010,-1.0,21.92,2 
COMPS,ioos:station:USF.COMPS:FHP:1,2016-04-01T10:18:00Z,28.1530,-82.8010,-1.0,22.1,2 
COMPS,ioos:station:USF.COMPS:FHP:1,2016-04-01T10:24:00Z,28.1530,-82.8010,-1.0,22.16,2 
COMPS,ioos:station:USF.COMPS:FHP:1,2016-04-01T10:30:00Z,28.1530,-82.8010,-1.0,22.12,2 
COMPS,ioos:station:USF.COMPS:FHP:1,2016-04-01T10:36:00Z,28.1530,-82.8010,-1.0,22.1,2 
COMPS,ioos:station:USF.COMPS:FHP:1,2016-04-01T10:42:00Z,28.1530,-82.8010,-1.0,22.07,2 
COMPS,ioos:station:USF.COMPS:FHP:1,2016-04-01T10:48:00Z,28.1530,-82.8010,-1.0,22.04,2 
COMPS,ioos:station:USF.COMPS:FHP:1,2016-04-01T10:54:00Z,28.1530,-82.8010,-1.0,22.08,2 
COMPS,ioos:station:USF.COMPS:FHP:1,2016-04-01T11:00:00Z,28.1530,-82.8010,-1.0,22.04,2 
COMPS,ioos:station:USF.COMPS:FHP:1,2016-04-01T11:06:00Z,28.1530,-82.8010,-1.0,22.15,2 
COMPS,ioos:station:USF.COMPS:FHP:1,2016-04-01T11:12:00Z,28.1530,-82.8010,-1.0,22.24,2 
COMPS,ioos:station:USF.COMPS:FHP:1,2016-04-01T11:18:00Z,28.1530,-82.8010,-1.0,22.09,2 
COMPS,ioos:station:USF.COMPS:FHP:1,2016-04-01T11:24:00Z,28.1530,-82.8010,-1.0,22.1,2 
COMPS,ioos:station:USF.COMPS:FHP:1,2016-04-01T11:30:00Z,28.1530,-82.8010,-1.0,22.1,2 
COMPS,ioos:station:USF.COMPS:FHP:1,2016-04-01T11:36:00Z,28.1530,-82.8010,-1.0,22.14,2 
COMPS,ioos:station:USF.COMPS:FHP:1,2016-04-01T11:42:00Z,28.1530,-82.8010,-1.0,22.17,2 
COMPS,ioos:station:USF.COMPS:FHP:1,2016-04-01T11:48:00Z,28.1530,-82.8010,-1.0,22.18,2 
COMPS,ioos:station:USF.COMPS:FHP:1,2016-04-01T11:54:00Z,28.1530,-82.8010,-1.0,22.19,2 
COMPS,ioos:station:USF.COMPS:FHP:1,2016-04-01T12:00:00Z,28.1530,-82.8010,-1.0,22.17,2 
COMPS,ioos:station:USF.COMPS:FHP:1,2016-04-01T12:06:00Z,28.1530,-82.8010,-1.0,22.19,2 
COMPS,ioos:station:USF.COMPS:FHP:1,2016-04-01T12:12:00Z,28.1530,-82.8010,-1.0,22.26,2 
COMPS,ioos:station:USF.COMPS:FHP:1,2016-04-01T12:18:00Z,28.1530,-82.8010,-1.0,22.3,2 
COMPS,ioos:station:USF.COMPS:FHP:1,2016-04-01T12:24:00Z,28.1530,-82.8010,-1.0,22.32,2 
COMPS,ioos:station:USF.COMPS:FHP:1,2016-04-01T12:30:00Z,28.1530,-82.8010,-1.0,22.34,2 
COMPS,ioos:station:USF.COMPS:FHP:1,2016-04-01T12:36:00Z,28.1530,-82.8010,-1.0,22.35,2 
COMPS,ioos:station:USF.COMPS:FHP:1,2016-04-01T12:42:00Z,28.1530,-82.8010,-1.0,22.36,2 
COMPS,ioos:station:USF.COMPS:FHP:1,2016-04-01T12:48:00Z,28.1530,-82.8010,-1.0,22.34,2 
COMPS,ioos:station:USF.COMPS:FHP:1,2016-04-01T12:54:00Z,28.1530,-82.8010,-1.0,22.36,2 
COMPS,ioos:station:USF.COMPS:FHP:1,2016-04-01T13:00:00Z,28.1530,-82.8010,-1.0,22.4,2 
COMPS,ioos:station:USF.COMPS:FHP:1,2016-04-01T13:06:00Z,28.1530,-82.8010,-1.0,22.4,2 
COMPS,ioos:station:USF.COMPS:FHP:1,2016-04-01T13:12:00Z,28.1530,-82.8010,-1.0,22.47,2 
COMPS,ioos:station:USF.COMPS:FHP:1,2016-04-01T13:18:00Z,28.1530,-82.8010,-1.0,22.57,2 
COMPS,ioos:station:USF.COMPS:FHP:1,2016-04-01T13:24:00Z,28.1530,-82.8010,-1.0,22.6,2 
COMPS,ioos:station:USF.COMPS:FHP:1,2016-04-01T13:30:00Z,28.1530,-82.8010,-1.0,22.6,2 
COMPS,ioos:station:USF.COMPS:FHP:1,2016-04-01T13:36:00Z,28.1530,-82.8010,-1.0,22.61,2 
COMPS,ioos:station:USF.COMPS:FHP:1,2016-04-01T13:42:00Z,28.1530,-82.8010,-1.0,22.6,2 
COMPS,ioos:station:USF.COMPS:FHP:1,2016-04-01T13:48:00Z,28.1530,-82.8010,-1.0,22.61,2 
COMPS,ioos:station:USF.COMPS:FHP:1,2016-04-01T13:54:00Z,28.1530,-82.8010,-1.0,22.63,2 
COMPS,ioos:station:USF.COMPS:FHP:1,2016-04-01T14:00:00Z,28.1530,-82.8010,-1.0,22.69,2 
COMPS,ioos:station:USF.COMPS:FHP:1,2016-04-01T14:06:00Z,28.1530,-82.8010,-1.0,22.77,2 
COMPS,ioos:station:USF.COMPS:FHP:1,2016-04-01T14:12:00Z,28.1530,-82.8010,-1.0,22.72,2 
COMPS,ioos:station:USF.COMPS:FHP:1,2016-04-01T14:18:00Z,28.1530,-82.8010,-1.0,22.66,2 
COMPS,ioos:station:USF.COMPS:FHP:1,2016-04-01T14:24:00Z,28.1530,-82.8010,-1.0,22.74,2 
COMPS,ioos:station:USF.COMPS:FHP:1,2016-04-01T14:30:00Z,28.1530,-82.8010,-1.0,22.82,2 
COMPS,ioos:station:USF.COMPS:FHP:1,2016-04-01T14:36:00Z,28.1530,-82.8010,-1.0,22.88,2 
COMPS,ioos:station:USF.COMPS:FHP:1,2016-04-01T14:42:00Z,28.1530,-82.8010,-1.0,22.86,2 
COMPS,ioos:station:USF.COMPS:FHP:1,2016-04-01T14:48:00Z,28.1530,-82.8010,-1.0,22.79,2 
COMPS,ioos:station:USF.COMPS:FHP:1,2016-04-01T14:54:00Z,28.1530,-82.8010,-1.0,21.43,2 
COMPS,ioos:station:USF.COMPS:FHP:1,2016-04-01T15:00:00Z,28.1530,-82.8010,-1.0,23.1,2 
COMPS,ioos:station:USF.COMPS:FHP:1,2016-04-01T15:06:00Z,28.1530,-82.8010,-1.0,22.09,2 
COMPS,ioos:station:USF.COMPS:FHP:1,2016-04-01T15:12:00Z,28.1530,-82.8010,-1.0,23.01,2 
COMPS,ioos:station:USF.COMPS:FHP:1,2016-04-01T15:18:00Z,28.1530,-82.8010,-1.0,23.03,2 
COMPS,ioos:station:USF.COMPS:FHP:1,2016-04-01T15:24:00Z,28.1530,-82.8010,-1.0,23.03,2 
COMPS,ioos:station:USF.COMPS:FHP:1,2016-04-01T15:30:00Z,28.1530,-82.8010,-1.0,23.13,2 
COMPS,ioos:station:USF.COMPS:FHP:1,2016-04-01T15:36:00Z,28.1530,-82.8010,-1.0,23.22,2 
COMPS,ioos:station:USF.COMPS:FHP:1,2016-04-01T15:42:00Z,28.1530,-82.8010,-1.0,23.33,2 
COMPS,ioos:station:USF.COMPS:FHP:1,2016-04-01T15:48:00Z,28.1530,-82.8010,-1.0,22.4,2 
COMPS,ioos:station:USF.COMPS:FHP:1,2016-04-01T15:54:00Z,28.1530,-82.8010,-1.0,23.32,2 
COMPS,ioos:station:USF.COMPS:FHP:1,2016-04-01T16:00:00Z,28.1530,-82.8010,-1.0,23.31,2 
COMPS,ioos:station:USF.COMPS:FHP:1,2016-04-01T16:06:00Z,28.1530,-82.8010,-1.0,23.39,2 
COMPS,ioos:station:USF.COMPS:FHP:1,2016-04-01T16:12:00Z,28.1530,-82.8010,-1.0,23.55,2 
COMPS,ioos:station:USF.COMPS:FHP:1,2016-04-01T16:18:00Z,28.1530,-82.8010,-1.0,21.53,2 
COMPS,ioos:station:USF.COMPS:FHP:1,2016-04-01T16:24:00Z,28.1530,-82.8010,-1.0,23.52,2 
COMPS,ioos:station:USF.COMPS:FHP:1,2016-04-01T16:30:00Z,28.1530,-82.8010,-1.0,21.62,2 
COMPS,ioos:station:USF.COMPS:FHP:1,2016-04-01T16:36:00Z,28.1530,-82.8010,-1.0,17.79,2 
COMPS,ioos:station:USF.COMPS:FHP:1,2016-04-01T16:42:00Z,28.1530,-82.8010,-1.0,23.86,2 
COMPS,ioos:station:USF.COMPS:FHP:1,2016-04-01T16:48:00Z,28.1530,-82.8010,-1.0,23.94,2 
COMPS,ioos:station:USF.COMPS:FHP:1,2016-04-01T16:54:00Z,28.1530,-82.8010,-1.0,24.11,2 
COMPS,ioos:station:USF.COMPS:FHP:1,2016-04-01T17:00:00Z,28.1530,-82.8010,-1.0,24.22,2 
COMPS,ioos:station:USF.COMPS:FHP:1,2016-04-01T17:06:00Z,28.1530,-82.8010,-1.0,24.24,2 
COMPS,ioos:station:USF.COMPS:FHP:1,2016-04-01T17:12:00Z,28.1530,-82.8010,-1.0,24.33,2 
COMPS,ioos:station:USF.COMPS:FHP:1,2016-04-01T17:18:00Z,28.1530,-82.8010,-1.0,24.46,2 
COMPS,ioos:station:USF.COMPS:FHP:1,2016-04-01T17:24:00Z,28.1530,-82.8010,-1.0,24.66,2 
COMPS,ioos:station:USF.COMPS:FHP:1,2016-04-01T17:30:00Z,28.1530,-82.8010,-1.0,24.7,2 
COMPS,ioos:station:USF.COMPS:FHP:1,2016-04-01T17:36:00Z,28.1530,-82.8010,-1.0,24.65,2 
COMPS,ioos:station:USF.COMPS:FHP:1,2016-04-01T17:42:00Z,28.1530,-82.8010,-1.0,24.43,2 
COMPS,ioos:station:USF.COMPS:FHP:1,2016-04-01T17:48:00Z,28.1530,-82.8010,-1.0,24.72,2 
COMPS,ioos:station:USF.COMPS:FHP:1,2016-04-01T17:54:00Z,28.1530,-82.8010,-1.0,24.74,2 
COMPS,ioos:station:USF.COMPS:FHP:1,2016-04-01T18:00:00Z,28.1530,-82.8010,-1.0,24.52,2 
COMPS,ioos:station:USF.COMPS:FHP:1,2016-04-01T18:06:00Z,28.1530,-82.8010,-1.0,24.96,2 
COMPS,ioos:station:USF.COMPS:FHP:1,2016-04-01T18:12:00Z,28.1530,-82.8010,-1.0,24.82,2 
COMPS,ioos:station:USF.COMPS:FHP:1,2016-04-01T18:18:00Z,28.1530,-82.8010,-1.0,25.21,2 
COMPS,ioos:station:USF.COMPS:FHP:1,2016-04-01T18:24:00Z,28.1530,-82.8010,-1.0,25.16,2 
COMPS,ioos:station:USF.COMPS:FHP:1,2016-04-01T18:30:00Z,28.1530,-82.8010,-1.0,24.92,2 
COMPS,ioos:station:USF.COMPS:FHP:1,2016-04-01T18:36:00Z,28.1530,-82.8010,-1.0,25.17,2 
COMPS,ioos:station:USF.COMPS:FHP:1,2016-04-01T18:42:00Z,28.1530,-82.8010,-1.0,24.54,2 
COMPS,ioos:station:USF.COMPS:FHP:1,2016-04-01T18:48:00Z,28.1530,-82.8010,-1.0,25.06,2 
COMPS,ioos:station:USF.COMPS:FHP:1,2016-04-01T18:54:00Z,28.1530,-82.8010,-1.0,25.07,2 
COMPS,ioos:station:USF.COMPS:FHP:1,2016-04-01T19:00:00Z,28.1530,-82.8010,-1.0,23.57,2 
COMPS,ioos:station:USF.COMPS:FHP:1,2016-04-01T19:06:00Z,28.1530,-82.8010,-1.0,13.61,2 
COMPS,ioos:station:USF.COMPS:FHP:1,2016-04-01T19:12:00Z,28.1530,-82.8010,-1.0,20.85,2 
COMPS,ioos:station:USF.COMPS:FHP:1,2016-04-01T19:18:00Z,28.1530,-82.8010,-1.0,15.77,2 
COMPS,ioos:station:USF.COMPS:FHP:1,2016-04-02T20:06:00Z,28.1530,-82.8010,-1.0,33.95,2 
COMPS,ioos:station:USF.COMPS:FHP:1,2016-04-02T20:18:00Z,28.1530,-82.8010,-1.0,36.95,2 
COMPS,ioos:station:USF.COMPS:FHP:1,2016-04-02T20:24:00Z,28.1530,-82.8010,-1.0,31.58,2 
COMPS,ioos:station:USF.COMPS:FHP:1,2016-04-02T20:30:00Z,28.1530,-82.8010,-1.0,28.42,2 
COMPS,ioos:station:USF.COMPS:FHP:1,2016-04-02T20:36:00Z,28.1530,-82.8010,-1.0,25.05,2 
COMPS,ioos:station:USF.COMPS:FHP:1,2016-04-02T20:42:00Z,28.1530,-82.8010,-1.0,21.49,2 
COMPS,ioos:station:USF.COMPS:FHP:1,2016-04-02T20:48:00Z,28.1530,-82.8010,-1.0,21.74,2 
COMPS,ioos:station:USF.COMPS:FHP:1,2016-04-02T20:54:00Z,28.1530,-82.8010,-1.0,21.25,2 
COMPS,ioos:station:USF.COMPS:FHP:1,2016-04-02T21:00:00Z,28.1530,-82.8010,-1.0,20.51,2 
COMPS,ioos:station:USF.COMPS:FHP:1,2016-04-02T21:06:00Z,28.1530,-82.8010,-1.0,18.86,2 
COMPS,ioos:station:USF.COMPS:FHP:1,2016-04-02T21:12:00Z,28.1530,-82.8010,-1.0,19.81,2 
COMPS,ioos:station:USF.COMPS:FHP:1,2016-04-02T21:18:00Z,28.1530,-82.8010,-1.0,20.96,2 
COMPS,ioos:station:USF.COMPS:FHP:1,2016-04-02T21:24:00Z,28.1530,-82.8010,-1.0,20.78,2 
COMPS,ioos:station:USF.COMPS:FHP:1,2016-04-02T21:30:00Z,28.1530,-82.8010,-1.0,20.6,2 
COMPS,ioos:station:USF.COMPS:FHP:1,2016-04-02T21:36:00Z,28.1530,-82.8010,-1.0,20.55,2 
COMPS,ioos:station:USF.COMPS:FHP:1,2016-04-02T21:42:00Z,28.1530,-82.8010,-1.0,21.2,2 
COMPS,ioos:station:USF.COMPS:FHP:1,2016-04-02T21:48:00Z,28.1530,-82.8010,-1.0,21.17,2 
COMPS,ioos:station:USF.COMPS:FHP:1,2016-04-02T21:54:00Z,28.1530,-82.8010,-1.0,20.67,2 
COMPS,ioos:station:USF.COMPS:FHP:1,2016-04-02T22:00:00Z,28.1530,-82.8010,-1.0,19.85,2 
COMPS,ioos:station:USF.COMPS:FHP:1,2016-04-02T22:06:00Z,28.1530,-82.8010,-1.0,21.21,2 
COMPS,ioos:station:USF.COMPS:FHP:1,2016-04-02T22:12:00Z,28.1530,-82.8010,-1.0,20.78,2 
COMPS,ioos:station:USF.COMPS:FHP:1,2016-04-02T22:18:00Z,28.1530,-82.8010,-1.0,20.95,2 
COMPS,ioos:station:USF.COMPS:FHP:1,2016-04-02T22:24:00Z,28.1530,-82.8010,-1.0,20.93,2 
COMPS,ioos:station:USF.COMPS:FHP:1,2016-04-02T22:30:00Z,28.1530,-82.8010,-1.0,20.81,2 
COMPS,ioos:station:USF.COMPS:FHP:1,2016-04-02T22:36:00Z,28.1530,-82.8010,-1.0,20.56,2 
COMPS,ioos:station:USF.COMPS:FHP:1,2016-04-02T22:42:00Z,28.1530,-82.8010,-1.0,20.03,2 
COMPS,ioos:station:USF.COMPS:FHP:1,2016-04-02T22:48:00Z,28.1530,-82.8010,-1.0,20.53,2 
COMPS,ioos:station:USF.COMPS:FHP:1,2016-04-02T22:54:00Z,28.1530,-82.8010,-1.0,20.12,2 
COMPS,ioos:station:USF.COMPS:FHP:1,2016-04-02T23:00:00Z,28.1530,-82.8010,-1.0,18.66,2 
COMPS,ioos:station:USF.COMPS:FHP:1,2016-04-02T23:06:00Z,28.1530,-82.8010,-1.0,19.7,2 
COMPS,ioos:station:USF.COMPS:FHP:1,2016-04-02T23:12:00Z,28.1530,-82.8010,-1.0,19.05,2 
COMPS,ioos:station:USF.COMPS:FHP:1,2016-04-02T23:18:00Z,28.1530,-82.8010,-1.0,18.31,2 
COMPS,ioos:station:USF.COMPS:FHP:1,2016-04-02T23:24:00Z,28.1530,-82.8010,-1.0,18.97,2 
COMPS,ioos:station:USF.COMPS:FHP:1,2016-04-02T23:30:00Z,28.1530,-82.8010,-1.0,17.38,2 
COMPS,ioos:station:USF.COMPS:FHP:1,2016-04-02T23:36:00Z,28.1530,-82.8010,-1.0,17.43,2 
COMPS,ioos:station:USF.COMPS:FHP:1,2016-04-02T23:42:00Z,28.1530,-82.8010,-1.0,17.46,2 
COMPS,ioos:station:USF.COMPS:FHP:1,2016-04-02T23:48:00Z,28.1530,-82.8010,-1.0,14.96,2 
COMPS,ioos:station:USF.COMPS:FHP:1,2016-04-02T23:54:00Z,28.1530,-82.8010,-1.0,17.14,2 
COMPS,ioos:station:USF.COMPS:FHP:1,2016-04-03T00:00:00Z,28.1530,-82.8010,-1.0,3.64,2 
COMPS,ioos:station:USF.COMPS:FHP:1,2016-04-03T23:00:00Z,28.1530,-82.8010,-1.0,24.95,2 
COMPS,ioos:station:USF.COMPS:FHP:1,2016-04-03T23:06:00Z,28.1530,-82.8010,-1.0,27.29,2 
COMPS,ioos:station:USF.COMPS:FHP:1,2016-04-03T23:12:00Z,28.1530,-82.8010,-1.0,23.62,2 
COMPS,ioos:station:USF.COMPS:FHP:1,2016-04-03T23:18:00Z,28.1530,-82.8010,-1.0,20.68,2 
COMPS,ioos:station:USF.COMPS:FHP:1,2016-04-03T23:24:00Z,28.1530,-82.8010,-1.0,19.97,2 
COMPS,ioos:station:USF.COMPS:FHP:1,2016-04-03T23:30:00Z,28.1530,-82.8010,-1.0,17.39,2 
COMPS,ioos:station:USF.COMPS:FHP:1,2016-04-03T23:36:00Z,28.1530,-82.8010,-1.0,17.24,2 
COMPS,ioos:station:USF.COMPS:FHP:1,2016-04-03T23:42:00Z,28.1530,-82.8010,-1.0,18.89,2 
COMPS,ioos:station:USF.COMPS:FHP:1,2016-04-03T23:48:00Z,28.1530,-82.8010,-1.0,19.4,2 
COMPS,ioos:station:USF.COMPS:FHP:1,2016-04-03T23:54:00Z,28.1530,-82.8010,-1.0,19.79,2 
COMPS,ioos:station:USF.COMPS:FHP:1,2016-04-04T00:00:00Z,28.1530,-82.8010,-1.0,19.45,2 
COMPS,ioos:station:USF.COMPS:FHP:1,2016-04-04T00:06:00Z,28.1530,-82.8010,-1.0,18.89,2 
COMPS,ioos:station:USF.COMPS:FHP:1,2016-04-04T00:12:00Z,28.1530,-82.8010,-1.0,18.18,2 
COMPS,ioos:station:USF.COMPS:FHP:1,2016-04-04T00:18:00Z,28.1530,-82.8010,-1.0,18.17,2 
COMPS,ioos:station:USF.COMPS:FHP:1,2016-04-04T00:24:00Z,28.1530,-82.8010,-1.0,19.82,2 
COMPS,ioos:station:USF.COMPS:FHP:1,2016-04-04T00:30:00Z,28.1530,-82.8010,-1.0,18.37,2 
COMPS,ioos:station:USF.COMPS:FHP:1,2016-04-04T00:36:00Z,28.1530,-82.8010,-1.0,15.45,2 
COMPS,ioos:station:USF.COMPS:FHP:1,2016-04-04T00:42:00Z,28.1530,-82.8010,-1.0,17.47,2 
COMPS,ioos:station:USF.COMPS:FHP:1,2016-04-04T00:48:00Z,28.1530,-82.8010,-1.0,15.74,2 
COMPS,ioos:station:USF.COMPS:FHP:1,2016-04-04T00:54:00Z,28.1530,-82.8010,-1.0,17.84,2 
COMPS,ioos:station:USF.COMPS:FHP:1,2016-04-04T01:00:00Z,28.1530,-82.8010,-1.0,17.8,2 
COMPS,ioos:station:USF.COMPS:FHP:1,2016-04-04T01:06:00Z,28.1530,-82.8010,-1.0,17.5,2 
COMPS,ioos:station:USF.COMPS:FHP:1,2016-04-04T01:12:00Z,28.1530,-82.8010,-1.0,17.7,2 
COMPS,ioos:station:USF.COMPS:FHP:1,2016-04-04T01:18:00Z,28.1530,-82.8010,-1.0,17.0,2 
COMPS,ioos:station:USF.COMPS:FHP:1,2016-04-04T01:24:00Z,28.1530,-82.8010,-1.0,12.07,2 
COMPS,ioos:station:USF.COMPS:FHP:1,2016-04-08T04:18:00Z,28.1530,-82.8010,-1.0,27.12,2 
COMPS,ioos:station:USF.COMPS:FHP:1,2016-04-08T04:24:00Z,28.1530,-82.8010,-1.0,23.59,2 
COMPS,ioos:station:USF.COMPS:FHP:1,2016-04-08T04:30:00Z,28.1530,-82.8010,-1.0,24.17,2 
COMPS,ioos:station:USF.COMPS:FHP:1,2016-04-08T04:36:00Z,28.1530,-82.8010,-1.0,22.18,2 
COMPS,ioos:station:USF.COMPS:FHP:1,2016-04-08T04:42:00Z,28.1530,-82.8010,-1.0,21.47,2 
COMPS,ioos:station:USF.COMPS:FHP:1,2016-04-08T04:48:00Z,28.1530,-82.8010,-1.0,20.97,2 
COMPS,ioos:station:USF.COMPS:FHP:1,2016-04-08T04:54:00Z,28.1530,-82.8010,-1.0,20.75,2 
COMPS,ioos:station:USF.COMPS:FHP:1,2016-04-08T05:00:00Z,28.1530,-82.8010,-1.0,20.55,2 
COMPS,ioos:station:USF.COMPS:FHP:1,2016-04-08T05:06:00Z,28.1530,-82.8010,-1.0,20.3,2 
COMPS,ioos:station:USF.COMPS:FHP:1,2016-04-08T05:12:00Z,28.1530,-82.8010,-1.0,20.03,2 
COMPS,ioos:station:USF.COMPS:FHP:1,2016-04-08T05:18:00Z,28.1530,-82.8010,-1.0,19.88,2 
COMPS,ioos:station:USF.COMPS:FHP:1,2016-04-08T05:24:00Z,28.1530,-82.8010,-1.0,20.05,2 
COMPS,ioos:station:USF.COMPS:FHP:1,2016-04-08T05:30:00Z,28.1530,-82.8010,-1.0,19.88,2 
COMPS,ioos:station:USF.COMPS:FHP:1,2016-04-08T05:36:00Z,28.1530,-82.8010,-1.0,19.91,2 
COMPS,ioos:station:USF.COMPS:FHP:1,2016-04-08T05:42:00Z,28.1530,-82.8010,-1.0,19.86,2 
COMPS,ioos:station:USF.COMPS:FHP:1,2016-04-08T05:48:00Z,28.1530,-82.8010,-1.0,19.8,2 
COMPS,ioos:station:USF.COMPS:FHP:1,2016-04-08T05:54:00Z,28.1530,-82.8010,-1.0,19.7,2 
COMPS,ioos:station:USF.COMPS:FHP:1,2016-04-08T06:00:00Z,28.1530,-82.8010,-1.0,19.65,2 
COMPS,ioos:station:USF.COMPS:FHP:1,2016-04-08T06:06:00Z,28.1530,-82.8010,-1.0,19.7,2 
COMPS,ioos:station:USF.COMPS:FHP:1,2016-04-08T06:12:00Z,28.1530,-82.8010,-1.0,19.66,2 
COMPS,ioos:station:USF.COMPS:FHP:1,2016-04-08T06:18:00Z,28.1530,-82.8010,-1.0,19.66,2 
COMPS,ioos:station:USF.COMPS:FHP:1,2016-04-08T06:24:00Z,28.1530,-82.8010,-1.0,19.68,2 
COMPS,ioos:station:USF.COMPS:FHP:1,2016-04-08T06:30:00Z,28.1530,-82.8010,-1.0,19.69,2 
COMPS,ioos:station:USF.COMPS:FHP:1,2016-04-08T06:36:00Z,28.1530,-82.8010,-1.0,19.65,2 
COMPS,ioos:station:USF.COMPS:FHP:1,2016-04-08T06:42:00Z,28.1530,-82.8010,-1.0,19.6,2 
COMPS,ioos:station:USF.COMPS:FHP:1,2016-04-08T06:48:00Z,28.1530,-82.8010,-1.0,19.62,2 
COMPS,ioos:station:USF.COMPS:FHP:1,2016-04-08T06:54:00Z,28.1530,-82.8010,-1.0,19.53,2 
COMPS,ioos:station:USF.COMPS:FHP:1,2016-04-08T07:00:00Z,28.1530,-82.8010,-1.0,19.18,2 
COMPS,ioos:station:USF.COMPS:FHP:1,2016-04-08T07:06:00Z,28.1530,-82.8010,-1.0,19.35,2 
COMPS,ioos:station:USF.COMPS:FHP:1,2016-04-08T07:12:00Z,28.1530,-82.8010,-1.0,19.27,2 
COMPS,ioos:station:USF.COMPS:FHP:1,2016-04-08T07:18:00Z,28.1530,-82.8010,-1.0,19.38,2 
COMPS,ioos:station:USF.COMPS:FHP:1,2016-04-08T07:24:00Z,28.1530,-82.8010,-1.0,19.55,2 
COMPS,ioos:station:USF.COMPS:FHP:1,2016-04-08T07:30:00Z,28.1530,-82.8010,-1.0,19.42,2 
COMPS,ioos:station:USF.COMPS:FHP:1,2016-04-08T07:36:00Z,28.1530,-82.8010,-1.0,19.35,2 
COMPS,ioos:station:USF.COMPS:FHP:1,2016-04-08T07:42:00Z,28.1530,-82.8010,-1.0,19.33,2 
COMPS,ioos:station:USF.COMPS:FHP:1,2016-04-08T07:48:00Z,28.1530,-82.8010,-1.0,18.96,2 
COMPS,ioos:station:USF.COMPS:FHP:1,2016-04-08T07:54:00Z,28.1530,-82.8010,-1.0,19.14,2 
COMPS,ioos:station:USF.COMPS:FHP:1,2016-04-08T08:00:00Z,28.1530,-82.8010,-1.0,18.57,2 
COMPS,ioos:station:USF.COMPS:FHP:1,2016-04-08T08:06:00Z,28.1530,-82.8010,-1.0,18.53,2 
COMPS,ioos:station:USF.COMPS:FHP:1,2016-04-08T08:12:00Z,28.1530,-82.8010,-1.0,19.09,2 
COMPS,ioos:station:USF.COMPS:FHP:1,2016-04-08T08:18:00Z,28.1530,-82.8010,-1.0,18.98,2 
COMPS,ioos:station:USF.COMPS:FHP:1,2016-04-08T08:24:00Z,28.1530,-82.8010,-1.0,18.87,2 
COMPS,ioos:station:USF.COMPS:FHP:1,2016-04-08T08:30:00Z,28.1530,-82.8010,-1.0,19.0,2 
COMPS,ioos:station:USF.COMPS:FHP:1,2016-04-08T08:36:00Z,28.1530,-82.8010,-1.0,18.08,2 
COMPS,ioos:station:USF.COMPS:FHP:1,2016-04-08T08:42:00Z,28.1530,-82.8010,-1.0,18.1,2 
COMPS,ioos:station:USF.COMPS:FHP:1,2016-04-08T08:48:00Z,28.1530,-82.8010,-1.0,19.04,2 
COMPS,ioos:station:USF.COMPS:FHP:1,2016-04-08T08:54:00Z,28.1530,-82.8010,-1.0,18.94,2 
COMPS,ioos:station:USF.COMPS:FHP:1,2016-04-08T09:00:00Z,28.1530,-82.8010,-1.0,18.72,2 
COMPS,ioos:station:USF.COMPS:FHP:1,2016-04-08T09:06:00Z,28.1530,-82.8010,-1.0,18.87,2 
COMPS,ioos:station:USF.COMPS:FHP:1,2016-04-08T09:12:00Z,28.1530,-82.8010,-1.0,18.52,2 
COMPS,ioos:station:USF.COMPS:FHP:1,2016-04-08T09:18:00Z,28.1530,-82.8010,-1.0,18.42,2 
COMPS,ioos:station:USF.COMPS:FHP:1,2016-04-08T09:24:00Z,28.1530,-82.8010,-1.0,19.06,2 
COMPS,ioos:station:USF.COMPS:FHP:1,2016-04-08T09:30:00Z,28.1530,-82.8010,-1.0,18.47,2 
COMPS,ioos:station:USF.COMPS:FHP:1,2016-04-08T09:36:00Z,28.1530,-82.8010,-1.0,17.94,2 
COMPS,ioos:station:USF.COMPS:FHP:1,2016-04-08T09:42:00Z,28.1530,-82.8010,-1.0,18.06,2 
COMPS,ioos:station:USF.COMPS:FHP:1,2016-04-08T09:48:00Z,28.1530,-82.8010,-1.0,17.49,2 
COMPS,ioos:station:USF.COMPS:FHP:1,2016-04-08T09:54:00Z,28.1530,-82.8010,-1.0,15.14,2 
COMPS,ioos:station:USF.COMPS:FHP:1,2016-04-08T10:00:00Z,28.1530,-82.8010,-1.0,13.32,2 
COMPS,ioos:station:USF.COMPS:FHP:1,2016-04-08T10:06:00Z,28.1530,-82.8010,-1.0,13.71,2 
COMPS,ioos:station:USF.COMPS:FHP:1,2016-04-08T10:12:00Z,28.1530,-82.8010,-1.0,16.98,2 
COMPS,ioos:station:USF.COMPS:FHP:1,2016-04-08T10:18:00Z,28.1530,-82.8010,-1.0,15.53,2 
COMPS,ioos:station:USF.COMPS:FHP:1,2016-04-08T10:24:00Z,28.1530,-82.8010,-1.0,13.7,2 
COMPS,ioos:station:USF.COMPS:FHP:1,2016-04-08T10:30:00Z,28.1530,-82.8010,-1.0,9.42,2 
COMPS,ioos:station:USF.COMPS:FHP:1,2016-04-08T10:36:00Z,28.1530,-82.8010,-1.0,11.16,2 
COMPS,ioos:station:USF.COMPS:FHP:1,2016-04-08T10:42:00Z,28.1530,-82.8010,-1.0,11.83,2 
COMPS,ioos:station:USF.COMPS:FHP:1,2016-04-08T10:48:00Z,28.1530,-82.8010,-1.0,11.76,2 
COMPS,ioos:station:USF.COMPS:FHP:1,2016-04-08T10:54:00Z,28.1530,-82.8010,-1.0,15.86,2 
COMPS,ioos:station:USF.COMPS:FHP:1,2016-04-08T11:00:00Z,28.1530,-82.8010,-1.0,9.22,2 
COMPS,ioos:station:USF.COMPS:FHP:1,2016-04-08T11:06:00Z,28.1530,-82.8010,-1.0,15.01,2 
COMPS,ioos:station:USF.COMPS:FHP:1,2016-04-08T11:12:00Z,28.1530,-82.8010,-1.0,12.72,2 
COMPS,ioos:station:USF.COMPS:FHP:1,2016-04-08T11:18:00Z,28.1530,-82.8010,-1.0,11.01,2 
COMPS,ioos:station:USF.COMPS:FHP:1,2016-04-08T11:24:00Z,28.1530,-82.8010,-1.0,14.57,2 
COMPS,ioos:station:USF.COMPS:FHP:1,2016-04-08T11:30:00Z,28.1530,-82.8010,-1.0,9.88,2 
COMPS,ioos:station:USF.COMPS:FHP:1,2016-04-08T11:42:00Z,28.1530,-82.8010,-1.0,2.86,2 
COMPS,ioos:station:USF.COMPS:FHP:1,2016-04-08T11:48:00Z,28.1530,-82.8010,-1.0,14.99,2 
COMPS,ioos:station:USF.COMPS:FHP:1,2016-04-08T11:54:00Z,28.1530,-82.8010,-1.0,14.13,2 
COMPS,ioos:station:USF.COMPS:FHP:1,2016-04-08T12:00:00Z,28.1530,-82.8010,-1.0,2.25,2 
COMPS,ioos:station:USF.COMPS:FHP:1,2016-04-08T12:06:00Z,28.1530,-82.8010,-1.0,8.39,2 
COMPS,ioos:station:USF.COMPS:FHP:1,2016-04-08T12:24:00Z,28.1530,-82.8010,-1.0,4.12,2 
COMPS,ioos:station:USF.COMPS:FHP:1,2016-04-08T12:30:00Z,28.1530,-82.8010,-1.0,8.85,2 
COMPS,ioos:station:USF.COMPS:FHP:1,2016-04-08T12:36:00Z,28.1530,-82.8010,-1.0,8.47,2 
COMPS,ioos:station:USF.COMPS:FHP:1,2016-04-08T12:42:00Z,28.1530,-82.8010,-1.0,7.49,2 
COMPS,ioos:station:USF.COMPS:FHP:1,2016-04-08T12:48:00Z,28.1530,-82.8010,-1.0,13.79,2 
COMPS,ioos:station:USF.COMPS:FHP:1,2016-04-08T12:54:00Z,28.1530,-82.8010,-1.0,13.49,2 
COMPS,ioos:station:USF.COMPS:FHP:1,2016-04-08T13:00:00Z,28.1530,-82.8010,-1.0,16.29,2 
COMPS,ioos:station:USF.COMPS:FHP:1,2016-04-08T13:06:00Z,28.1530,-82.8010,-1.0,12.72,2 
COMPS,ioos:station:USF.COMPS:FHP:1,2016-04-08T13:12:00Z,28.1530,-82.8010,-1.0,15.97,2 
COMPS,ioos:station:USF.COMPS:FHP:1,2016-04-08T13:18:00Z,28.1530,-82.8010,-1.0,14.53,2 
COMPS,ioos:station:USF.COMPS:FHP:1,2016-04-08T13:24:00Z,28.1530,-82.8010,-1.0,12.4,2 
COMPS,ioos:station:USF.COMPS:FHP:1,2016-04-08T13:30:00Z,28.1530,-82.8010,-1.0,15.04,2 
COMPS,ioos:station:USF.COMPS:FHP:1,2016-04-08T13:36:00Z,28.1530,-82.8010,-1.0,15.42,2 
COMPS,ioos:station:USF.COMPS:FHP:1,2016-04-08T13:42:00Z,28.1530,-82.8010,-1.0,11.41,2 
COMPS,ioos:station:USF.COMPS:FHP:1,2016-04-08T13:48:00Z,28.1530,-82.8010,-1.0,16.16,2 
COMPS,ioos:station:USF.COMPS:FHP:1,2016-04-08T13:54:00Z,28.1530,-82.8010,-1.0,12.87,2 